DLH6UA EDDF-LIMC

Flight info

Callsign DLH6UA
Flight time N/A
Altitude 31000
Route ANEKI3F ANEKI Y163 NATOR DCT TRA DCT RIPUS DCT GERSA DCT SOSON/N0408F290 DCT DEGAD DCT BASGO Z424 RIXUV
Aircraft A321/M-SDE2E3FGIJ1LORWXYZ/HB1

Departure

Time N/A
Airport Frankfurt Main Airport (EDDF)

Arrival

Time 2026-05-07 09:41
Airport Milan Malpensa International Airport (LIMC)
Time Latitude Longitude Altitude Speed Heading
2026-05-07 09:11 46.92799 8.54820 31054 ft 416 kts 174°
2026-05-07 09:11 46.89915 8.55249 31060 ft 417 kts 175°
2026-05-07 09:11 46.84150 8.56084 31063 ft 416 kts 175°
2026-05-07 09:12 46.78390 8.56883 31071 ft 416 kts 175°
2026-05-07 09:12 46.72549 8.57713 30993 ft 431 kts 175°
2026-05-07 09:13 46.69561 8.58143 30438 ft 432 kts 175°
2026-05-07 09:13 46.66614 8.58570 29763 ft 431 kts 175°
2026-05-07 09:13 46.63638 8.58998 29080 ft 428 kts 175°
2026-05-07 09:13 46.60707 8.59416 27954 ft 420 kts 175°
2026-05-07 09:14 46.57815 8.59827 28079 ft 415 kts 175°
2026-05-07 09:14 46.54965 8.60233 27648 ft 408 kts 175°
2026-05-07 09:14 46.52166 8.60631 27238 ft 400 kts 175°
2026-05-07 09:14 46.50325 8.60890 26972 ft 396 kts 175°
2026-05-07 09:15 46.47601 8.61255 26561 ft 389 kts 178°
2026-05-07 09:15 46.44928 8.61108 26166 ft 381 kts 189°
2026-05-07 09:15 46.42384 8.60220 25785 ft 374 kts 201°
2026-05-07 09:15 46.40049 8.58650 25364 ft 367 kts 213°
2026-05-07 09:16 46.37897 8.56708 24963 ft 362 kts 213°
2026-05-07 09:16 46.35773 8.54796 24575 ft 357 kts 213°
2026-05-07 09:16 46.33668 8.52913 24174 ft 353 kts 213°
2026-05-07 09:16 46.31593 8.51060 23759 ft 350 kts 213°
2026-05-07 09:17 46.29482 8.49320 23322 ft 347 kts 206°
2026-05-07 09:17 46.27215 8.48183 22902 ft 344 kts 194°
2026-05-07 09:17 46.24859 8.47722 22490 ft 341 kts 183°
2026-05-07 09:17 46.22509 8.47907 22097 ft 337 kts 175°
2026-05-07 09:18 46.20190 8.48255 21704 ft 333 kts 176°
2026-05-07 09:18 46.17901 8.48586 21305 ft 329 kts 176°
2026-05-07 09:18 46.15640 8.48906 20920 ft 326 kts 176°
2026-05-07 09:18 46.13390 8.49224 20523 ft 324 kts 176°
2026-05-07 09:19 46.11193 8.49639 20141 ft 322 kts 170°
2026-05-07 09:19 46.09051 8.50576 19759 ft 322 kts 161°
2026-05-07 09:19 46.06935 8.51731 19360 ft 320 kts 161°
2026-05-07 09:19 46.04880 8.52846 18990 ft 319 kts 162°
2026-05-07 09:20 46.02812 8.53965 18623 ft 317 kts 162°
2026-05-07 09:20 46.00756 8.55074 18243 ft 314 kts 162°
2026-05-07 09:20 45.98711 8.56175 17845 ft 313 kts 162°
2026-05-07 09:20 45.96678 8.57269 17477 ft 311 kts 162°
2026-05-07 09:21 45.94658 8.58353 17105 ft 309 kts 162°
2026-05-07 09:21 45.92657 8.59424 16742 ft 305 kts 162°
2026-05-07 09:21 45.90683 8.60517 16378 ft 303 kts 158°
2026-05-07 09:21 45.88866 8.62021 16017 ft 302 kts 146°
2026-05-07 09:22 45.87232 8.63898 15671 ft 300 kts 142°
2026-05-07 09:22 45.85621 8.65779 15311 ft 298 kts 143°
2026-05-07 09:22 45.84016 8.67642 14961 ft 296 kts 143°
2026-05-07 09:22 45.82422 8.69486 14613 ft 294 kts 143°
2026-05-07 09:23 45.80833 8.71316 14270 ft 292 kts 143°
2026-05-07 09:23 45.79255 8.73131 13928 ft 290 kts 143°
2026-05-07 09:23 45.77691 8.74935 13572 ft 288 kts 142°
2026-05-07 09:23 45.76093 8.76640 13208 ft 285 kts 150°
2026-05-07 09:24 45.74367 8.77994 12872 ft 282 kts 153°
2026-05-07 09:24 45.72644 8.79314 12533 ft 280 kts 153°
2026-05-07 09:24 45.70928 8.80629 12202 ft 279 kts 153°
2026-05-07 09:24 45.69226 8.81937 11871 ft 277 kts 153°
2026-05-07 09:25 45.67533 8.83239 11550 ft 276 kts 153°
2026-05-07 09:25 45.65854 8.84533 11281 ft 272 kts 153°
2026-05-07 09:25 45.64188 8.85816 11191 ft 273 kts 153°
2026-05-07 09:25 45.62511 8.87096 11079 ft 273 kts 155°
2026-05-07 09:26 45.60749 8.87981 10882 ft 273 kts 169°
2026-05-07 09:26 45.58861 8.88494 10530 ft 272 kts 171°
2026-05-07 09:26 45.57014 8.88990 10203 ft 269 kts 170°
2026-05-07 09:26 45.55177 8.89487 9880 ft 267 kts 170°
2026-05-07 09:27 45.53382 8.89975 9545 ft 265 kts 170°
2026-05-07 09:27 45.51572 8.90468 9222 ft 264 kts 169°
2026-05-07 09:27 45.48007 8.91439 8697 ft 255 kts 170°
2026-05-07 09:28 45.46266 8.91912 8352 ft 255 kts 169°
2026-05-07 09:28 45.44527 8.92381 8020 ft 253 kts 169°
2026-05-07 09:28 45.42807 8.92848 7679 ft 252 kts 169°
2026-05-07 09:28 45.41093 8.93317 7257 ft 250 kts 170°
2026-05-07 09:29 45.39390 8.93777 6799 ft 249 kts 170°
2026-05-07 09:29 45.37700 8.94232 6363 ft 245 kts 171°
2026-05-07 09:29 45.36029 8.94688 5937 ft 241 kts 170°
2026-05-07 09:29 45.34412 8.95128 5810 ft 236 kts 171°
2026-05-07 09:30 45.32794 8.95561 5677 ft 237 kts 170°
2026-05-07 09:30 45.31173 8.95998 5548 ft 237 kts 171°
2026-05-07 09:30 45.29556 8.96438 5420 ft 236 kts 171°
2026-05-07 09:30 45.27945 8.96876 5296 ft 235 kts 171°
2026-05-07 09:31 45.26342 8.97310 5169 ft 234 kts 171°
2026-05-07 09:31 45.24738 8.97709 5057 ft 233 kts 178°
2026-05-07 09:31 45.23218 8.97220 4988 ft 219 kts 213°
2026-05-07 09:31 45.22209 8.95680 4993 ft 216 kts 244°
2026-05-07 09:32 45.21813 8.93618 4876 ft 218 kts 259°
2026-05-07 09:32 45.21537 8.91509 4740 ft 218 kts 259°
2026-05-07 09:32 45.21255 8.89395 4622 ft 218 kts 258°
2026-05-07 09:32 45.21028 8.87273 4490 ft 218 kts 271°
2026-05-07 09:33 45.21475 8.85253 4359 ft 218 kts 306°
2026-05-07 09:33 45.22653 8.83939 4233 ft 219 kts 340°
2026-05-07 09:33 45.24122 8.83482 4122 ft 220 kts 349°
2026-05-07 09:33 45.25645 8.83081 4020 ft 220 kts 349°
2026-05-07 09:34 45.27126 8.82682 3983 ft 220 kts 348°
2026-05-07 09:34 45.28633 8.82272 3989 ft 220 kts 348°
2026-05-07 09:34 45.30136 8.81862 3993 ft 220 kts 348°
2026-05-07 09:34 45.31639 8.81454 3992 ft 220 kts 348°
2026-05-07 09:35 45.33147 8.81045 3986 ft 221 kts 349°
2026-05-07 09:35 45.34613 8.80644 3988 ft 207 kts 348°
2026-05-07 09:35 45.36008 8.80256 3984 ft 203 kts 348°
2026-05-07 09:35 45.37395 8.79886 3988 ft 203 kts 350°
2026-05-07 09:36 45.38795 8.79587 3985 ft 203 kts 352°
2026-05-07 09:36 45.40196 8.79319 3990 ft 203 kts 352°
2026-05-07 09:36 45.41598 8.79055 4010 ft 202 kts 352°
2026-05-07 09:36 45.42956 8.78793 4014 ft 194 kts 350°
2026-05-07 09:37 45.44279 8.78486 4020 ft 192 kts 350°
2026-05-07 09:37 45.45562 8.78150 3883 ft 181 kts 349°
2026-05-07 09:37 45.46756 8.77825 3691 ft 171 kts 349°
2026-05-07 09:37 45.47917 8.77509 3484 ft 169 kts 349°
2026-05-07 09:38 45.49069 8.77192 3255 ft 168 kts 349°
2026-05-07 09:38 45.50215 8.76878 3024 ft 168 kts 349°
2026-05-07 09:38 45.51359 8.76564 2804 ft 167 kts 349°
2026-05-07 09:38 45.52489 8.76253 2578 ft 161 kts 349°
2026-05-07 09:39 45.53545 8.75962 2372 ft 149 kts 349°
2026-05-07 09:39 45.54543 8.75688 2166 ft 144 kts 349°
2026-05-07 09:39 45.55514 8.75420 1974 ft 141 kts 349°
2026-05-07 09:39 45.56478 8.75153 1774 ft 141 kts 349°
2026-05-07 09:40 45.57438 8.74890 1582 ft 140 kts 349°
2026-05-07 09:40 45.58390 8.74624 1397 ft 139 kts 349°
2026-05-07 09:40 45.59348 8.74365 1207 ft 140 kts 349°
2026-05-07 09:40 45.60310 8.74095 1012 ft 141 kts 349°
2026-05-07 09:41 45.61270 8.73829 832 ft 140 kts 350°
2026-05-07 09:41 45.62180 8.73583 738 ft 125 kts 348°
2026-05-07 09:41 45.62847 8.73397 737 ft 57 kts 349°
2026-05-07 09:41 45.63097 8.73292 737 ft 33 kts 332°
2026-05-07 09:42 45.63249 8.73092 739 ft 24 kts 304°
2026-05-07 09:42 45.63342 8.72898 741 ft 20 kts 304°
2026-05-07 09:42 45.63396 8.72751 741 ft 18 kts 272°
2026-05-07 09:42 45.63324 8.72611 741 ft 19 kts 214°
2026-05-07 09:43 45.63208 8.72498 741 ft 20 kts 213°
2026-05-07 09:43 45.63102 8.72397 743 ft 16 kts 213°
2026-05-07 09:43 45.63035 8.72261 743 ft 18 kts 251°
2026-05-07 09:43 45.63007 8.72083 742 ft 16 kts 243°
2026-05-07 09:44 45.62912 8.72069 741 ft 16 kts 169°
2026-05-07 09:44 45.62798 8.72100 741 ft 18 kts 169°
2026-05-07 09:44 45.62697 8.72094 740 ft 14 kts 225°
2026-05-07 09:44 45.62668 8.71961 741 ft 15 kts 259°
2026-05-07 09:45 45.62650 8.71832 741 ft 13 kts 259°
2026-05-07 09:45 45.62634 8.71713 741 ft 11 kts 259°
2026-05-07 09:45 45.62605 8.71661 741 ft 6 kts 184°
2026-05-07 09:45 45.62569 8.71667 741 ft 2 kts 169°
2026-05-07 09:46 45.62558 8.71670 741 ft 1 kts 169°
2026-05-07 09:46 45.62555 8.71671 741 ft 0 kts 169°